Volver al catálogo

CZ-6A DEB

ActivoSSO
NORAD 56250·DEBRIS·🇨🇳 China

Lanzado Nov 11, 2022 desde Taiyuan Satellite Launch Center

Loading…

Próximos Pases (próximas 24 horas)

TLE

ActualizadoSource: Space-Track

Época: Sep 14, 2026, 07:13 UTC

1 56250U 22151ABS 26257.30108627  .00001922  00000-0  52520-3 0  9999
2 56250  98.5549 287.1252 0089992  82.0102 279.1289 14.46067732183434

Sigue CZ-6A DEB en tiempo real con AllMySat

Download on the App Store